This demonstration page uses our WeatherBlox Daily Observations layout. Learn more.

Left ArrowRight Arrow

39.51506, -84.39828

Hourly Observations for February 19, 2016

Temp ( °F °C ) Dew Point ( °F °C ) Humidity (%) Winds ( mph kmh ) Pressure ( in mb ) Visibility ( mi km ) Precip ( " mm )
12:15 am 00:15 Clear 40 4.5 26 -3.1 58 58 S 6 9 30.27 1025 10 16 0.00 0.00
12:35 am 00:35 Clear 40 4.5 27 -3 59 59 SSE 3 6 30.27 1025 10 16 0.00 0.00
12:55 am 00:55 Clear 40 4.7 27 -2.9 58 58 S 7 11 30.27 1025 10 16 0.00 0.00
1:15 am 01:15 Clear 40 4.7 26 -3.1 57 57 SSE 3 6 30.24 1024 10 16 0.00 0.00
1:35 am 01:35 Clear 40 4.7 26 -3.1 57 57 SSE 7 11 30.24 1024 10 16 0.00 0.00
1:55 am 01:55 Clear 41 5.1 27 -2.9 57 57 SSE 7 11 30.24 1024 10 16 0.00 0.00
2:15 am 02:15 Clear 42 5.5 27 -2.7 56 56 SSE 6 9 30.21 1023 10 16 0.00 0.00
2:35 am 02:35 Clear 42 5.5 27 -2.9 55 55 SSE 7 11 30.18 1022 10 16 0.00 0.00
2:55 am 02:55 Clear 42 5.5 27 -2.7 56 56 S 6 9 30.18 1022 10 16 0.00 0.00
3:15 am 03:15 Clear 42 5.5 28 -2.3 58 58 SSE 6 9 30.18 1022 10 16 0.00 0.00
3:35 am 03:35 Clear 41 5 27 -2.7 58 58 SE 3 6 30.15 1021 10 16 0.00 0.00
3:55 am 03:55 Clear 41 5 27 -2.6 58 58 SSE 5 7 30.15 1021 10 16 0.00 0.00
4:15 am 04:15 Clear 42 5.5 27 -2.6 56 56 S 7 11 30.15 1021 10 16 0.00 0.00
4:35 am 04:35 Clear 42 5.4 28 -2.4 58 58 S 6 9 30.12 1020 10 16 0.00 0.00
4:55 am 04:55 Clear 42 5.5 28 -2.2 58 58 S 7 11 30.12 1020 10 16 0.00 0.00
5:15 am 05:15 Clear 42 5.5 28 -2.5 57 57 S 7 11 30.12 1020 10 16 0.00 0.00
5:35 am 05:35 Clear 42 5.7 28 -2.1 58 58 S 7 11 30.12 1020 10 16 0.00 0.00
5:55 am 05:55 Clear 45 7.2 28 -2 52 52 SSW 12 19 30.12 1020 10 16 0.00 0.00
6:15 am 06:15 Clear 47 8.2 29 -1.5 51 51 SSW 13 20 30.09 1019 10 16 0.00 0.00
6:35 am 06:35 Clear 46 7.6 29 -1.7 52 52 SSW 10 17 30.09 1019 10 16 0.00 0.00
6:55 am 06:55 Clear 47 8.2 30 -1.3 52 52 SSW 14 22 30.09 1019 10 16 0.00 0.00
7:15 am 07:15 Clear 47 8.1 30 -1.1 53 53 SSW 14 22 30.09 1019 10 16 0.00 0.00
7:35 am 07:35 Mostly Cloudy 48 9 31 -0.6 51 51 S 15 24 30.06 1018 10 16 0.00 0.00
7:55 am 07:55 Cloudy 49 9.6 31 -0.5 50 50 S 16 26 30.06 1018 10 16 0.00 0.00
8:15 am 08:15 Mostly Cloudy 49 9.6 31 -0.7 49 49 SSW 18 30 30.06 1018 10 16 0.00 0.00
8:35 am 08:35 Mostly Cloudy 49 9.6 30 -1.1 48 48 SSW 21 33 30.06 1018 10 16 0.00 0.00
8:55 am 08:55 Mostly Cloudy 49 9.6 30 -1 48 48 S 20 31 30.03 1017 10 16 0.00 0.00
9:15 am 09:15 Mostly Cloudy 49 9.6 30 -1.1 48 48 SSW 21 33 30.03 1017 10 16 0.00 0.00
9:35 am 09:35 Cloudy 49 9.6 30 -1.1 48 48 SSW 18 30 30.03 1017 10 16 0.00 0.00
9:55 am 09:55 Cloudy 51 10.4 31 -0.5 47 47 SSW 17 28 30.03 1017 10 16 0.00 0.00
10:15 am 10:15 Mostly Cloudy 55 12.5 32 -0.1 42 42 SSW 17 28 30.00 1016 10 16 0.00 0.00
10:35 am 10:35 Sunny 57 13.8 32 -0.2 38 38 SSW 22 35 30.00 1016 10 16 0.00 0.00
10:55 am 10:55 Sunny 58 14.3 31 -0.6 36 36 SW 25 41 29.97 1015 10 16 0.00 0.00
11:15 am 11:15 Sunny 60 15.3 31 -0.3 35 35 SSW 25 41 29.94 1014 10 16 0.00 0.00
11:35 am 11:35 Sunny 61 15.9 31 -0.8 32 32 SW 30 48 29.94 1014 10 16 0.00 0.00
11:55 am 11:55 Sunny 62 16.4 30 -0.9 31 31 SSW 25 41 29.91 1013 10 16 0.00 0.00
12:15 pm 12:15 Sunny 62 16.6 30 -1.2 30 30 SSW 29 46 29.91 1013 10 16 0.00 0.00
12:35 pm 12:35 Partly Cloudy 63 17.3 31 -0.6 30 30 SSW 26 43 29.88 1012 10 16 0.00 0.00
12:55 pm 12:55 Mostly Cloudy 64 17.7 31 -0.8 29 29 SW 28 44 29.85 1011 10 16 0.00 0.00
1:15 pm 13:15 Cloudy 64 18 29 -1.7 26 26 SW 26 43 29.85 1011 10 16 0.00 0.00
1:35 pm 13:35 Cloudy 63 17.3 30 -1.3 28 28 SW 25 41 29.85 1011 10 16 0.00 0.00
1:55 pm 13:55 Cloudy 64 18 30 -1.1 28 28 SW 24 39 29.83 1010 10 16 0.00 0.00
2:15 pm 14:15 Partly Cloudy 67 19.5 31 -0.6 26 26 SW 36 57 29.83 1010 10 16 0.00 0.00
2:35 pm 14:35 Partly Cloudy 67 19.5 32 -0.2 27 27 SW 31 50 29.83 1010 10 16 0.00 0.00
2:55 pm 14:55 Partly Cloudy 67 19.5 32 0 27 27 SW 30 48 29.83 1010 10 16 0.00 0.00
3:15 pm 15:15 Partly Cloudy 69 20.8 33 0.6 26 26 SW 23 37 29.83 1010 10 16 0.00 0.00
3:35 pm 15:35 Sunny 69 20.8 33 0.6 26 26 SW 31 50 29.83 1010 10 16 0.00 0.00
3:55 pm 15:55 Sunny 69 20.8 33 0.4 26 26 SW 37 59 29.83 1010 10 16 0.00 0.00
4:15 pm 16:15 Sunny 68 20.1 33 0.7 27 27 SW 26 43 29.80 1009 10 16 0.00 0.00
4:35 pm 16:35 Sunny 67 19.5 33 0.7 29 29 SW 24 39 29.83 1010 10 16 0.00 0.00
4:55 pm 16:55 Sunny 69 20.6 36 2.1 29 29 WSW 21 33 29.83 1010 10 16 0.00 0.00
5:20 pm 17:20 Partly Cloudy 64 18 37 3 37 37 WSW 29 46 29.83 1010 10 16 0.00 0.00
5:35 pm 17:35 Partly Cloudy 64 17.9 39 3.9 40 40 SW 17 28 29.83 1010 10 16 0.00 0.00
5:55 pm 17:55 Mostly Cloudy 63 17.3 39 4 41 41 SW 23 37 29.83 1010 10 16 0.00 0.00
6:15 pm 18:15 Cloudy 63 17 40 4.4 43 43 WSW 17 28 29.85 1011 10 16 0.00 0.00
6:35 pm 18:35 Cloudy 62 16.7 40 4.5 45 45 WSW 23 37 29.85 1011 10 16 0.00 0.00
6:55 pm 18:55 Partly Cloudy 62 16.6 41 5.2 47 47 SW 23 37 29.85 1011 10 16 0.00 0.00
7:15 pm 19:15 Clear 61 16 42 5.4 50 50 SW 20 31 29.85 1011 10 16 0.00 0.00
7:35 pm 19:35 Clear 61 15.9 43 6.1 52 52 WSW 18 30 29.85 1011 10 16 0.00 0.00
7:55 pm 19:55 Partly Cloudy 61 16 44 6.5 54 54 WSW 16 26 29.88 1012 10 16 0.00 0.00
8:15 pm 20:15 Clear 60 15.6 44 6.9 56 56 WSW 15 24 29.88 1012 10 16 0.00 0.00
8:35 pm 20:35 Clear 60 15.3 45 7.3 59 59 WSW 16 26 29.91 1013 10 16 0.00 0.00
8:55 pm 20:55 Partly Cloudy 60 15.4 46 7.8 61 61 WSW 14 22 29.91 1013 10 16 0.00 0.00
9:15 pm 21:15 Partly Cloudy 60 15.3 47 8.1 62 62 WSW 15 24 29.91 1013 10 16 0.00 0.00
9:35 pm 21:35 Partly Cloudy 60 15.3 47 8.5 64 64 WSW 15 24 29.94 1014 10 16 0.00 0.00
9:55 pm 21:55 Clear 60 15.3 47 8.5 64 64 WSW 20 31 29.94 1014 10 16 0.00 0.00
10:15 pm 22:15 Clear 60 15.3 48 9 66 66 WSW 14 22 29.94 1014 10 16 0.00 0.00
10:35 pm 22:35 Clear 60 15.3 49 9.3 68 68 WSW 14 22 30.00 1016 10 16 0.00 0.00
10:55 pm 22:55 Clear 60 15.3 49 9.2 67 67 WSW 13 20 30.00 1016 10 16 0.00 0.00
11:15 pm 23:15 Clear 58 14.3 48 8.7 69 69 WSW 10 17 30.00 1016 10 16 0.00 0.00
11:35 pm 23:35 Clear 57 14.1 48 9 72 72 WSW 13 20 30.00 1016 10 16 0.00 0.00
11:55 pm 23:55 Clear 57 13.8 48 9 73 73 WSW 10 17 30.00 1016 10 16 0.00 0.00

Powered by AerisWeather